Flag for Brazil Weather past 2 weeks in Rio Branco, Acre, Brazil

Now
75 °F

Sunny.


Feels Like: 74 °F
Forecast: N/A
Wind: 2 mph from West

Location: Rio Branco Airport

Current Time: Apr 25, 2015 at 6:17:38 PM

Latest Report: Apr 25, 2015 at 5:00 PM


Visibility: 10 mi

Pressure: 29.83 "Hg

Humidity: 94%

Dew point: 73 °F

Location of Rio BrancoLocation

Historic Weather in Rio Branco — Graph

°F

Rio Branco temperature yesterday

Maximum temperature yesterday: 86 °F (at 2:00 PM)
Minimum temperature yesterday: 73 °F (at 1:00 AM)
Average temperature yesterday: 77 °F

Past Weeks' High & Low Weather Summary

 TemperatureHumidityPressure
High90 °F (Apr 16, 1:00 PM)100% (Apr 10, 8:00 PM)30.04 "Hg (Apr 10, 8:00 PM)
Low39 °F (Apr 11, 4:00 PM)59% (Apr 16, 12:00 PM)29.74 "Hg (Apr 20, 4:00 PM)
Average77 °F89%29.90 "Hg
* Reported Apr 10 5:00 PM — Apr 25 5:00 PM, Rio Branco, Weather by CustomWeather, © 2015

Note: Actual official high and low records may vary slightly from our data, if they occured in-between our weather recording intervals... More about our weather records

Advertising

Rio Branco weather history for previous 24 hours

 ConditionsComfort  
Time TempWeatherWind HumidityBarometerVisibility
5:00 PM
Sat, Apr 25
75 °FSunny.2 mph94%29.83 "Hg10 mi
4:00 PM77 °FSunny.No wind89%29.86 "Hg10 mi
3:00 PM77 °FHeavy rain. Broken clouds.13 mph94%29.86 "Hg1 mi
2:00 PM88 °FScattered showers. Partly sunny.9 mph70%29.86 "HgN/A
1:00 PM88 °FPartly sunny.5 mph70%29.89 "HgN/A
12:00 PM84 °FScattered showers. Partly sunny.7 mph79%29.95 "HgN/A
11:00 AM81 °FLight rain. Partly sunny.2 mph84%29.98 "HgN/A
10:00 AM84 °FPartly sunny.8 mph74%30.01 "HgN/A
9:00 AM82 °FPartly sunny.9 mph84%30.01 "HgN/A
8:00 AM79 °FScattered clouds.8 mph89%30.01 "HgN/A
7:00 AM77 °FPassing clouds.3 mph94%29.98 "HgN/A
6:00 AM73 °FPassing clouds.No wind94%29.98 "HgN/A
5:00 AM73 °FPassing clouds.2 mph94%29.95 "HgN/A
4:00 AM73 °FFog.2 mph94%29.95 "Hg1 mi
3:00 AM73 °FPassing clouds.2 mph100%29.95 "HgN/A
2:00 AM73 °FFog.2 mph100%29.95 "Hg1 mi
1:00 AM73 °FPassing clouds.2 mph100%29.95 "HgN/A
12:00 AM73 °FPassing clouds.No wind100%29.95 "HgN/A
11:00 PM
Fri, Apr 24
75 °FPassing clouds.2 mph94%29.95 "HgN/A
10:00 PM75 °FPassing clouds.3 mph94%29.95 "HgN/A
9:00 PM73 °FPassing clouds.No wind100%29.95 "HgN/A
8:00 PM75 °FPartly cloudy.2 mph94%29.92 "HgN/A
7:00 PM75 °FPartly cloudy.5 mph94%29.89 "HgN/A
6:00 PM77 °FBroken clouds.3 mph94%29.86 "HgN/A
Weather by CustomWeather, © 2015

See weather overviewHow to use our weather pages